Location: Sungai Apap
(2.6167°N, 113.3833°E)
Time: 14:13:20
(UTC+00:00)

Cosmos 1513 Rocket - Pass Details

Date: 25 May 2024
Orbit: 940 x 1007 km, 82.9° (Epoch: 12 June)

Event Time Altitude Azimuth Distance (km) Brightness Sun altitude
Rises 12:04:56 0° 3° (N) 3,720 7.8 -22.5°
Reaches altitude 10° 12:07:29 10° 7° (N) 2,772 7.1 -23.1°
Maximum altitude 12:13:47 62° 87° (E) 1,117 4.5 -24.5°
Enters shadow 12:15:00 53° 132° (SE) 1,219 4.6 -24.8°
